Theta_e
328 328 329 329 329 330 330 329 329 328 328 329 329 329 329 328 329 329 329 329 329 329 329 329 328 327 326 326 326 324 323 323 323 322 321 320 319 319 319 318 316 314
327 327 327 328 329 329 329 329 328 328 328 328 329 329 328 328 329 329 329 329 329 329 329 328 327 326 326 326 325 322 321 321 321 321 320 319 318 319 318 317 315 312
326 326 327 327 328 328 329 329 329 328 328 328 328 328 328 328 329 329 328 329 329 329 329 328 325 325 325 324 323 322 320 320 320 319 319 318 318 318 317 316 314 309
325 326 326 327 327 327 328 328 329 329 328 328 328 328 328 328 328 328 328 328 329 329 329 327 325 324 324 323 322 322 321 320 320 319 319 318 318 317 316 314 311 305
325 325 325 326 327 327 327 328 328 328 328 328 327 327 327 327 327 327 327 328 329 329 328 327 325 324 323 323 323 322 321 320 319 318 319 318 316 315 313 311 308 303
323 323 324 324 325 326 326 326 327 327 327 327 327 327 327 326 327 327 327 328 328 327 327 326 325 324 323 323 323 322 321 320 319 318 317 316 314 313 311 308 304 301
320 321 322 322 322 323 324 325 326 326 327 326 326 326 326 326 327 327 327 327 327 326 325 325 324 324 324 323 322 320 319 319 317 316 314 313 312 310 308 305 301 298
318 319 320 321 321 322 323 324 325 325 326 326 326 326 326 326 327 327 327 327 326 325 324 324 324 324 324 322 320 319 318 317 315 314 312 311 309 308 305 302 298 294
315 317 318 319 320 321 322 322 323 324 325 325 325 325 325 326 326 327 327 326 325 324 324 324 323 323 322 321 319 318 317 316 314 312 310 308 307 306 302 297 294 291
311 313 314 316 317 319 320 321 322 323 323 324 324 324 325 325 325 326 325 325 324 323 323 323 322 321 321 320 319 318 317 315 313 310 308 307 306 302 297 293 292 291
311 311 312 313 314 316 318 319 320 321 322 323 323 323 324 324 324 324 323 323 322 322 322 322 322 321 320 320 319 317 316 314 312 309 306 305 302 297 292 291 291 291
310 310 310 310 311 312 315 316 318 320 321 321 321 322 323 323 323 322 322 322 322 321 320 321 322 320 318 319 318 317 315 312 308 305 303 300 297 293 291 291 291 290
308 309 309 309 310 311 313 314 316 318 319 319 320 320 320 321 321 321 320 320 320 319 318 317 318 318 317 317 317 316 314 309 305 302 299 295 293 291 291 290 290 290
308 309 310 311 312 312 313 314 315 317 318 318 318 318 318 319 319 319 319 318 317 316 316 315 314 316 317 317 316 315 311 306 302 299 295 292 291 290 290 290 289 289
309 310 312 312 313 314 315 315 316 316 317 317 317 317 317 317 317 317 316 315 313 312 312 313 313 314 316 316 315 313 309 303 300 297 293 291 290 290 289 289 289 289
310 311 312 313 314 315 315 316 316 316 317 317 316 316 315 314 314 313 313 312 311 310 310 311 312 313 315 316 315 313 308 303 298 295 292 290 290 289 289 289 288 288
311 312 313 314 314 314 314 315 315 315 315 314 314 313 313 313 312 311 311 310 310 309 309 310 312 315 315 314 312 310 307 301 296 292 291 290 289 289 289 288 288 288
310 312 312 313 313 313 313 312 313 313 312 312 311 311 311 311 311 310 309 309 308 309 309 310 312 314 314 312 309 306 303 298 293 291 290 289 289 289 289 288 288 288
310 311 311 312 312 312 312 311 311 310 311 310 309 309 309 309 308 308 307 307 307 307 307 308 310 312 312 310 306 302 298 294 292 291 290 289 289 288 288 288 288 288
309 309 310 310 310 310 310 309 309 308 308 308 308 307 307 307 306 306 305 306 306 306 307 308 309 311 311 308 303 299 294 291 290 290 290 289 289 288 288 288 288 288
309 309 309 309 309 309 308 307 307 307 306 306 306 306 305 305 305 304 304 305 304 304 305 306 308 309 309 306 301 296 292 290 289 289 289 288 288 288 288 288 288 288
307 308 308 308 308 308 307 307 306 306 305 305 304 304 303 303 303 303 304 304 304 304 304 304 306 307 305 302 298 293 290 289 289 288 288 288 288 288 288 287 287 287
306 307 307 307 307 307 307 307 306 306 305 305 304 304 303 303 303 303 304 304 304 305 304 304 304 305 303 299 295 291 289 288 288 288 288 287 287 287 287 286 286 286
305 305 306 306 305 305 306 307 306 306 306 305 304 304 304 304 304 304 304 305 305 305 304 303 303 303 301 297 293 290 288 288 288 287 287 287 287 286 286 286 286 286
304 304 305 305 305 305 305 305 305 304 304 304 303 303 303 303 302 302 302 302 302 302 301 299 297 297 296 293 290 288 288 287 287 287 287 286 286 286 285 285 286 286
302 302 303 304 305 305 305 304 304 303 302 302 302 300 300 300 300 299 299 299 299 298 296 294 293 293 293 290 288 288 287 287 287 287 287 286 286 285 285 285 285 285
Wind_Speed
21 21 21 23 25 24 23 22 21 23 25 25 25 24 26 29 27 26 27 28 28 30 30 30 30 29 27 27 26 23 21 21 22 22 21 19 20 21 19 18 17 14
19 19 20 22 24 23 23 22 22 24 24 24 24 23 24 25 26 26 27 29 30 30 30 30 28 27 26 26 26 22 19 20 21 22 22 21 21 22 21 20 18 14
18 19 21 22 23 22 22 22 23 24 24 22 23 24 23 23 25 27 28 30 30 30 30 29 26 26 27 26 25 23 20 21 23 23 23 22 23 23 22 21 19 15
18 20 21 22 23 22 21 22 23 24 23 22 23 24 23 23 25 27 28 30 31 31 31 29 28 29 29 27 26 25 25 25 25 25 24 23 24 24 23 21 19 17
18 20 20 21 22 22 22 22 23 24 25 24 24 24 24 25 26 27 28 29 31 31 31 31 30 31 31 30 28 28 28 28 25 25 24 24 25 24 22 22 21 21
20 21 22 23 24 24 24 25 25 25 27 27 26 26 26 26 26 27 28 30 31 32 33 33 32 32 32 31 29 29 30 29 27 26 25 25 25 24 23 23 23 24
22 23 23 25 26 26 27 27 27 27 27 28 28 28 28 28 28 28 29 30 31 32 34 34 33 33 32 30 30 31 31 29 28 27 26 25 25 25 25 24 25 26
18 21 22 23 24 26 27 28 28 28 28 29 29 30 30 29 29 29 29 30 31 33 35 35 34 34 34 32 32 32 29 27 26 26 26 26 26 25 25 25 26 26
15 18 21 23 24 25 27 27 28 29 29 29 30 30 29 29 29 30 30 31 32 34 36 35 34 34 33 33 33 31 27 25 25 26 27 27 26 26 26 27 27 26
16 16 18 22 24 25 26 26 26 27 28 28 29 29 29 29 29 30 31 32 33 35 37 37 35 35 33 33 34 30 25 23 24 26 27 27 26 28 29 29 28 26
15 15 16 20 22 23 23 24 24 25 26 27 28 28 28 29 29 30 31 32 34 35 38 38 37 36 35 35 34 28 23 23 24 26 27 27 28 30 31 29 27 26
13 14 15 17 18 20 20 21 22 23 25 25 26 27 28 28 29 30 32 33 34 36 38 39 39 38 37 35 32 26 23 24 24 25 27 28 30 31 30 28 26 24
13 13 13 13 14 15 16 18 19 21 22 23 24 25 26 28 29 29 31 32 34 35 37 38 39 38 35 32 29 25 24 24 25 26 28 29 30 29 28 26 25 23
11 11 11 11 12 13 14 15 17 18 20 21 22 23 24 26 27 28 29 30 31 33 35 36 35 34 34 31 27 25 25 26 27 29 30 29 28 27 27 25 24 23
10 10 11 11 12 13 14 15 16 17 18 19 20 22 23 23 25 26 27 28 29 30 32 34 34 34 34 31 27 25 26 27 29 30 31 30 28 27 27 26 25 24
11 11 12 12 13 13 14 15 16 17 18 19 20 21 21 22 23 24 25 27 29 30 31 33 34 33 32 29 26 27 28 29 31 32 31 31 30 29 28 27 26 25
12 12 12 13 14 14 15 16 17 17 18 18 19 20 20 21 21 23 24 26 28 30 31 32 33 32 30 28 27 28 30 32 34 34 33 32 31 31 30 29 28 27
13 13 13 14 14 15 15 16 16 17 17 17 18 19 19 20 21 22 24 26 28 30 31 32 32 31 29 28 29 31 32 34 36 35 34 33 32 31 31 30 29 28
13 13 14 14 15 15 16 16 16 16 17 17 17 18 19 20 21 22 24 26 28 29 30 30 30 29 28 29 31 32 33 35 36 36 35 34 33 32 31 30 29 29
14 13 14 14 15 15 15 16 16 15 16 16 17 17 19 20 21 22 23 25 26 28 28 29 29 28 28 30 32 33 34 35 36 35 34 34 33 32 31 30 30 30
15 14 14 14 15 15 16 16 16 16 16 16 17 17 18 19 20 22 23 25 26 26 26 27 27 27 28 31 33 34 34 35 34 34 33 32 32 31 31 30 30 30
16 15 15 15 15 15 15 16 16 16 16 16 17 17 18 19 20 21 23 24 24 25 24 25 25 27 29 31 33 34 35 34 33 33 32 31 31 31 30 30 30 29
16 16 16 16 16 16 16 16 16 16 17 17 17 18 19 19 20 21 21 22 23 23 24 25 26 28 30 32 34 36 36 35 33 33 32 31 30 30 29 29 28 27
16 16 16 16 17 17 17 17 16 17 17 17 17 18 18 19 20 20 20 21 22 23 24 26 28 30 31 34 36 37 37 35 34 32 31 30 29 28 28 28 27 27
15 15 16 16 16 17 17 17 17 18 17 17 18 18 19 19 20 20 21 21 22 24 25 27 28 30 32 34 36 37 37 35 33 32 31 30 29 27 26 27 27 27
15 15 16 16 16 16 16 16 16 17 17 18 18 19 19 20 20 21 21 22 23 24 26 27 28 29 31 34 36 37 37 35 33 33 33 31 29 29 28 28 28 28
Wind_Direction
218 220 223 227 228 228 224 221 219 221 224 224 222 224 225 225 224 223 224 224 223 223 225 229 235 238 235 231 223 209 206 207 206 205 205 202 203 207 209 207 206 207
220 223 226 230 230 230 227 224 223 222 224 225 225 226 228 227 226 225 223 223 224 226 230 236 237 231 224 220 210 201 202 203 204 206 204 205 208 210 213 216 217 212
221 224 228 231 232 231 229 227 227 225 225 228 227 227 228 227 227 227 225 226 229 230 231 232 227 218 214 209 202 200 202 206 211 209 208 214 218 218 219 223 224 211
221 224 228 231 232 233 232 231 229 226 226 228 229 229 229 228 227 228 230 230 231 231 229 225 219 214 214 213 211 212 214 218 220 215 214 220 221 220 221 224 220 202
223 225 227 230 233 233 233 232 230 229 230 232 232 231 229 228 228 232 233 232 230 229 226 221 217 214 215 217 220 221 220 219 218 215 217 219 217 216 217 219 212 198
223 224 226 229 232 232 233 235 235 235 233 232 232 230 230 232 236 237 236 232 228 226 221 217 215 214 214 216 218 218 216 215 214 215 219 219 217 218 218 215 205 195
222 223 225 229 230 232 234 235 234 234 233 231 232 235 238 241 242 240 237 232 228 223 218 214 214 213 214 217 216 212 211 214 216 219 221 220 220 219 216 208 198 192
224 224 225 227 228 230 232 233 233 234 236 236 238 241 243 243 242 239 236 233 228 223 219 216 216 213 213 216 214 211 212 219 224 225 222 220 219 216 209 199 192 191
233 230 228 229 229 231 233 236 237 238 239 240 241 242 243 242 241 240 236 233 228 224 220 217 217 214 213 212 212 214 220 228 230 225 219 217 216 209 199 191 189 191
240 236 232 231 232 235 236 237 239 239 239 240 240 241 242 241 240 238 235 232 227 222 218 215 214 213 212 211 212 217 226 232 229 219 215 216 211 201 193 190 191 193
241 239 236 234 234 236 238 238 240 241 240 239 239 239 240 239 237 235 232 229 226 223 218 215 213 212 211 209 211 217 226 231 226 216 212 209 202 196 193 193 194 196
241 242 242 241 240 239 239 240 242 243 244 242 240 239 238 237 235 233 231 229 227 224 219 214 212 211 209 207 209 216 224 225 219 210 203 198 195 195 195 196 197 198
246 249 251 252 251 248 245 245 245 247 249 247 244 241 239 237 234 233 231 229 227 225 219 214 210 208 207 207 210 216 220 216 207 199 194 192 194 196 196 198 199 199
248 250 251 252 252 251 249 247 246 248 250 249 246 243 240 238 237 235 232 229 226 224 220 214 210 207 206 208 211 214 214 209 200 193 190 191 194 196 197 199 200 199
243 241 243 246 249 249 248 247 246 246 248 248 247 244 242 239 237 235 232 227 223 219 216 213 210 207 207 209 212 212 210 204 197 193 192 193 195 196 198 199 199 198
238 238 239 244 248 249 249 248 247 247 247 247 246 244 242 239 236 233 230 226 221 215 212 211 210 208 209 214 218 215 209 202 197 195 196 197 197 196 196 197 198 199
236 238 240 244 247 249 250 249 249 248 247 246 244 241 240 238 235 232 228 224 220 215 213 213 211 210 213 217 217 215 210 202 197 196 197 199 199 198 197 196 197 200
239 241 243 247 249 250 252 251 250 249 246 244 242 239 238 236 234 230 225 221 217 215 215 214 212 212 214 216 214 211 209 203 199 198 198 199 199 199 199 198 198 201
244 245 246 250 252 253 253 252 251 249 247 244 241 238 236 232 230 227 222 218 216 215 215 215 214 214 215 215 212 209 207 203 201 200 200 200 200 201 201 201 201 203
243 247 250 253 254 254 254 252 250 249 247 245 241 237 233 229 226 224 221 218 216 215 215 216 217 218 217 214 211 208 206 203 201 201 201 201 202 203 204 204 205 207
239 244 249 254 255 255 254 253 250 247 246 244 240 237 234 230 226 223 220 218 215 214 215 217 219 222 219 214 211 208 204 202 201 200 200 201 202 204 206 206 207 209
237 239 242 246 250 252 253 252 251 248 245 242 239 235 231 228 225 223 220 218 215 216 218 220 224 224 219 214 211 207 203 201 201 201 200 201 202 204 205 207 208 209
235 238 240 240 240 243 245 247 249 248 246 243 239 234 230 226 225 223 222 220 220 221 223 226 229 228 221 215 211 207 203 202 202 200 200 201 202 204 205 207 209 209
235 237 241 242 242 242 243 243 243 243 244 243 240 237 234 230 227 225 226 226 228 231 232 232 233 231 224 216 211 208 205 203 202 200 199 200 202 203 205 207 209 210
236 237 240 244 246 249 251 250 247 244 243 241 238 236 235 232 230 229 231 233 235 237 236 232 231 229 223 215 211 208 205 203 202 200 199 201 202 203 205 208 210 211
234 238 242 245 249 252 255 258 256 253 251 248 243 239 237 236 236 236 237 239 240 238 233 228 226 226 222 215 211 208 206 205 205 204 203 203 203 204 206 208 211 212